TimePST,TemperatureF,Dew PointF,Humidity,Sea Level PressureIn,VisibilityMPH,Wind Direction,Wind SpeedMPH,Gust SpeedMPH,PrecipitationIn,Events,Conditions,WindDirDegrees,DateUTC
12:53 AM,39.0,33.1,79,30.04,10.0,ENE,6.9,-,N/A,,Mostly Cloudy,70,2012-12-25 08:53:00
1:53 AM,39.9,32.0,73,30.00,10.0,East,6.9,-,0.00,,Mostly Cloudy,90,2012-12-25 09:53:00
2:53 AM,37.9,32.0,79,29.97,10.0,Calm,Calm,-,N/A,,Mostly Cloudy,0,2012-12-25 10:53:00
3:53 AM,37.9,32.0,79,29.94,10.0,Calm,Calm,-,N/A,,Overcast,0,2012-12-25 11:53:00
4:53 AM,39.9,30.9,70,29.88,10.0,South,5.8,-,N/A,,Overcast,170,2012-12-25 12:53:00
5:53 AM,39.0,33.1,79,29.86,10.0,Calm,Calm,-,N/A,,Overcast,0,2012-12-25 13:53:00
6:53 AM,39.0,34.0,82,29.82,10.0,Calm,Calm,-,0.00,Rain,Light Rain,0,2012-12-25 14:53:00
7:38 AM,42.8,30.2,61,29.76,10.0,ESE,10.4,-,0.01,Rain,Light Rain,120,2012-12-25 15:38:00
7:53 AM,41.0,32.0,70,29.78,8.0,ESE,15.0,-,0.01,Rain,Light Rain,120,2012-12-25 15:53:00
7:58 AM,41.0,32.0,70,29.75,8.0,ESE,16.1,21.9,0.00,Rain,Light Rain,120,2012-12-25 15:58:00
8:53 AM,39.0,33.1,79,29.76,6.0,SE,9.2,18.4,0.07,Rain,Light Rain,140,2012-12-25 16:53:00
9:53 AM,37.9,34.0,86,29.74,6.0,East,9.2,-,0.16,Rain,Light Rain,100,2012-12-25 17:53:00
10:53 AM,37.9,33.1,83,29.72,5.0,ESE,16.1,20.7,0.14,Rain-Snow,Light Rain,110,2012-12-25 18:53:00
11:14 AM,37.4,33.8,87,29.68,7.0,ESE,11.5,-,0.02,Rain,Light Rain,110,2012-12-25 19:14:00
11:53 AM,39.0,34.0,82,29.70,6.0,ESE,13.8,-,0.04,Rain,Light Rain,120,2012-12-25 19:53:00
12:53 PM,39.0,34.0,82,29.70,7.0,ESE,16.1,-,0.07,Rain,Light Rain,120,2012-12-25 20:53:00
1:33 PM,39.2,33.8,81,29.66,9.0,ESE,17.3,-,0.02,Rain,Light Rain,120,2012-12-25 21:33:00
1:53 PM,39.0,34.0,82,29.69,10.0,SE,16.1,-,0.02,Rain,Light Rain,130,2012-12-25 21:53:00
2:53 PM,39.9,34.0,79,29.70,10.0,ESE,13.8,-,0.00,Rain,Light Rain,110,2012-12-25 22:53:00
3:53 PM,41.0,33.1,73,29.69,10.0,East,12.7,-,0.00,,Overcast,100,2012-12-25 23:53:00
4:53 PM,41.0,32.0,70,29.69,10.0,ESE,4.6,-,N/A,,Overcast,120,2012-12-26 00:53:00
5:53 PM,42.1,30.9,65,29.69,10.0,ESE,13.8,-,0.00,,Overcast,110,2012-12-26 01:53:00
6:53 PM,41.0,30.9,67,29.69,10.0,ESE,15.0,-,0.00,,Overcast,120,2012-12-26 02:53:00
7:53 PM,41.0,30.9,67,29.68,10.0,ESE,12.7,-,0.00,Rain,Light Rain,110,2012-12-26 03:53:00
8:53 PM,41.0,30.9,67,29.69,10.0,ESE,16.1,-,0.01,Rain,Light Rain,110,2012-12-26 04:53:00
9:53 PM,41.0,30.9,67,29.70,10.0,SE,6.9,-,0.01,Rain,Light Rain,130,2012-12-26 05:53:00
10:53 PM,41.0,30.0,65,29.72,10.0,SE,9.2,-,0.00,,Overcast,140,2012-12-26 06:53:00
11:53 PM,39.9,30.0,68,29.72,10.0,ESE,6.9,-,0.00,,Overcast,120,2012-12-26 07:53:00